This is the latest recevied weather packets stored in our database for station/object WA6OOO. If no packets are shown the sender has not sent any weather packets the latest 10 day(s).
| Time | Temp. | Humidity | Pressure | Rain* | Wind** | Luminosity | Snow |
|---|---|---|---|---|---|---|---|
| 1777846504 | 18.33° C | 60% | 1016.8 hPa | 0 mm | - | 473 W/m² | - |
| 1777846201 | 18.33° C | 60% | 1016.8 hPa | 0 mm | - | 336 W/m² | - |
| 1777845897 | 18.33° C | 60% | 1016.9 hPa | 0 mm | - | 328 W/m² | - |
| 1777845594 | 18.33° C | 59% | 1016.9 hPa | 0 mm | - | 367 W/m² | - |
| 1777845291 | 18.33° C | 59% | 1016.8 hPa | 0 mm | - | 377 W/m² | - |
| 1777844989 | 18.89° C | 59% | 1016.9 hPa | 0 mm | - | 440 W/m² | - |
| 1777844687 | 18.33° C | 60% | 1016.8 hPa | 0 mm | - | 396 W/m² | - |
| 1777844383 | 17.78° C | 60% | 1016.9 hPa | 0 mm | - | 464 W/m² | - |
| 1777844082 | 18.33° C | 60% | 1017 hPa | 0 mm | - | 395 W/m² | - |
| 1777843778 | 17.78° C | 60% | 1017 hPa | 0 mm | - | 409 W/m² | - |
| 1777843475 | 18.33° C | 60% | 1017.2 hPa | 0 mm | - | 425 W/m² | - |
| 1777843173 | 17.78° C | 60% | 1017.1 hPa | 0 mm | - | 478 W/m² | - |
| 1777842870 | 17.78° C | 61% | 1017.1 hPa | 0 mm | - | 420 W/m² | - |
| 1777842565 | 17.78° C | 62% | 1017.2 hPa | 0 mm | - | 411 W/m² | - |
| 1777842262 | 17.78° C | 62% | 1017.2 hPa | 0 mm | - | 352 W/m² | - |
| 1777841957 | 17.78° C | 63% | 1017.2 hPa | 0 mm | - | 357 W/m² | - |
| 1777841655 | 17.78° C | 62% | 1017.3 hPa | 0 mm | - | 341 W/m² | - |
| 1777841350 | 17.78° C | 62% | 1017.2 hPa | 0 mm | - | 383 W/m² | - |
| 1777841048 | 17.78° C | 62% | 1017.1 hPa | 0 mm | - | 370 W/m² | - |
| 1777840745 | 17.78° C | 61% | 1017.2 hPa | 0 mm | - | 375 W/m² | - |
| 1777840442 | 17.78° C | 62% | 1017.3 hPa | 0 mm | - | 367 W/m² | - |
| 1777840139 | 17.22° C | 62% | 1017.2 hPa | 0 mm | - | 364 W/m² | - |
| 1777839837 | 17.22° C | 62% | 1017.5 hPa | 0 mm | - | 354 W/m² | - |
| 1777839535 | 17.22° C | 63% | 1017.5 hPa | 0 mm | - | 333 W/m² | - |
| 1777839232 | 17.22° C | 64% | 1017.4 hPa | 0 mm | - | 347 W/m² | - |
* Rain latest hour (hover to see other rain measurements)
** Current wind speed in m/s (hover to see current wind gust speed)